Regional Weather Roundup
Issued by NWS

Home | Current Version | Previous Version | Text Only | Print | Product List | Glossary On
Versions: 1 2 3 4 5 6 7 8 9 10 11 12 13 14 15 16 17 18 19 20 21 22 23 24 25 26 27 28 29 30 31 32 33 34 35 36 37 38 39 40 41 42 43 44 45 46 47 48 49 50
000
ASUS43 KDMX 081008
RWRIA

WEATHER ROUNDUP FOR IOWA
NATIONAL WEATHER SERVICE DES MOINES IA
400 AM CST MON FEB 08 2016

NOTE: "FAIR" INDICATES FEW OR NO CLOUDS BELOW 12,000 FEET WITH NO
SIGNIFICANT WEATHER AND/OR OBSTRUCTIONS TO VISIBILITY.

* - THESE STATIONS ARE NOT NWS STATIONS...THUS NOT UNDER NWS
QUALITY CONTROL.  THEY ALSO DO NOT REPORT WEATHER SUCH
AS PRECIPITATION OR FOG.

IAZ001>003-012>014-020>022-031>034-043>046-081100-
   NORTHWEST IOWA

CITY           SKY/WX    TMP DP  RH WIND       PRES   REMARKS
CARROLL *      CLOUDY    21  14  73 NW31G38   29.91S WCI   3
CHEROKEE *     LGT SNOW  19  18  93 N20G31    29.95R WCI   4
DENISON *      LGT SNOW  21  19  93 NW31G40   29.92F VSB 3/4 WCI   3
LE MARS *      MIX PCPN  25  21  86 NW25G33   29.99S WCI   9
ORANGE CITY *    N/A     19  19 100 N17G26    29.96R WCI   4
SHELDON *      LGT SNOW  18  16  93 N28G35    29.93F WCI  -1
SIOUX CITY     FLURRIES  27  18  69 N32G39    29.99S WCI  10
SPENCER        LGT SNOW  16  10  77 N36G46    29.91S WCI  -6
STORM LAKE *   LGT SNOW  18  16  93 N29G36    29.90F WCI  -2
$$

IAZ055>058-069>071-079>083-090>094-081100-
   SOUTHWEST IOWA

CITY           SKY/WX    TMP DP  RH WIND       PRES   REMARKS
ATLANTIC *     LGT SNOW  23  18  80 N26G38    29.95S WCI   6
AUDUBON *      FLURRIES  21  16  79 NW17G24   29.93S WCI   7
CLARINDA *     MIX PCPN  28  23  80 NW22      29.99S WCI  15
COUNCIL BLFS * CLOUDY    28  21  74 NW21G31   29.97S WCI  15
CRESTON *      FLURRIES  23  16  74 NW28G36   29.92R WCI   6
HARLAN  *      LGT SNOW  23  21  93 NW23      29.99S WCI   7
LAMONI         CLOUDY    25  16  68 NW22G33   29.89S WCI  10
RED OAK *      LGT RAIN  28  21  74 N23G36    29.98R WCI  14
SHENANDOAH *   FLURRIES  30  27  86 N15       30.00R WCI  19
$$

IAZ047>049-059>061-072>074-084-081100-
   CENTRAL IOWA

CITY           SKY/WX    TMP DP  RH WIND       PRES   REMARKS
AMES           SNOW      19  15  84 NW23G33   29.86R VSB 1/2 WCI   2
ANKENY *       CLOUDY    21  14  73 NW22G44   29.87S WCI   5
BOONE *        LGT SNOW  18  12  79 NW21G33   29.85R WCI   1
CHARITON *     FLURRIES  23  16  74 NW26G32   29.86R WCI   6
DES MOINES     LGT SNOW  22  15  75 NW29G41   29.87S WCI   4
GRINNELL*      LGT SNOW  19  16  86 NW29G36   29.81S WCI   1
KNOXVILLE *    FLURRIES  23  14  68 NW25G36   29.83R WCI   7
MARSHALLTOWN   CLOUDY    17  12  80 NW26G45   29.81S WCI  -2
NEWTON *       LGT SNOW  21  18  86 NW30G40   29.83S WCI   3
PELLA *        LGT SNOW  21  18  86 NW20G28   29.85S WCI   6
$$

IAZ004>006-015-016-023>025-035-036-081100-
   NORTH CENTRAL IOWA

CITY           SKY/WX    TMP DP  RH WIND       PRES   REMARKS
ALGONA *       LGT SNOW  14  10  85 N29G48    29.84R VSB 1   WCI  -7
CLARION *      CLOUDY    14   9  79 NW29G40   29.82R WCI  -7
ESTHERVILLE    HVY SNOW  13  10  88 NW37G47   29.87S VSB<1/4 WCI -10
FORT DODGE *   CLOUDY    16   9  73 NW16G29   29.88R WCI   0
MASON CITY     LGT SNOW  13  10  88 NW29G37   29.80R VSB 3/4 WCI  -8
FOREST CITY *  CLOUDY    14   9  79 NW25G36   29.80R WCI  -5
WEBSTER CITY * SNOW      16  12  86 NW35G44   29.83R VSB 1/4 WCI  -6
IOWA FALLS *   SNOW      16  12  86 NW26G36   29.82R VSB 1/2 WCI  -3
$$

IAZ007>011-017>019-026>030-037>042-050>054-066-081100-
   NORTHEAST IOWA

CITY           SKY/WX    TMP DP  RH WIND       PRES   REMARKS
CEDAR RAPIDS   LGT SNOW  19  15  84 NW24G33   29.75S FOG     WCI   2
CHARLES CITY * FLURRIES  16  12  86 NW24G31   29.75S WCI  -3
CLINTON *      CLOUDY    26  20  77 NW23      29.69F WCI  11
DECORAH *      FLURRIES  18  10  73 NW13G24   29.69S WCI   4
DUBUQUE        LGT SNOW  20  17  88 NW17      29.67S FOG     WCI   5
MONTICELLO *   LGT SNOW  19  14  79 NW20G28   29.72R WCI   4
OELWEIN *      FLURRIES  16  10  79 NW17G24   29.73S WCI   0
WATERLOO       LGT SNOW  16  12  84 NW17      29.76F VSB 1   WCI   0
$$

IAZ064-065-067-068-078-081100-
   EAST CENTRAL IOWA

CITY           SKY/WX    TMP DP  RH WIND       PRES   REMARKS
DAVENPORT      CLOUDY    25  17  72 NW23G36   29.71R WCI  10
IOWA CITY      LGT SNOW  21  14  74 NW21G35   29.79S WCI   5
MT. PLEASANT * LGT SNOW  28  21  74 NW16G28   29.78S WCI  17
MUSCATINE *    FLURRIES  25  16  68 NW21G35   29.78R WCI  10
QUAD CITIES    CLOUDY    29  20  69 NW28G35   29.71R WCI  14
$$

IAZ062-063-075>077-085>089-095>099-081100-
   SOUTHEAST IOWA

CITY           SKY/WX    TMP DP  RH WIND       PRES   REMARKS
BURLINGTON     CLOUDY    26  19  74 NW14G26   29.76R WCI  14
FAIRFIELD *    LGT SNOW  23  19  86 NW24      29.80R VSB 1   WCI   7
FORT MADISON * CLOUDY    27  23  86 NW16G24   29.77S WCI  14
KEOKUK *       CLOUDY    30  25  80 NW15G26   29.78S WCI  19
OSKALOOSA *    LGT SNOW  23  19  86 NW20G25   29.82S WCI   8
CENTERVILLE *    N/A    N/A N/A N/A MISG        N/A
OTTUMWA        LGT SNOW  22  19  89 NW21G31   29.82S FOG     WCI   6
WASHINGTON *   LGT SNOW  23  16  74 NW28G33   29.81R WCI   6
$$

ABBREVIATIONS USED IN REMARKS
   TC - TEMPERATURES IN CELSIUS
  WCI - WIND CHILL INDEX
   HX - HEAT INDEX
  VSB - VISIBILITY
$$




USA.gov is the U.S. government's official web portal to all federal, state and local government web resources and services.